#Datum;Uhrzeit;WR;Pac;DaySum;Status;WR;Pac;DaySum;Status;Pdc1;Udc;Temp;WR;Pac;DaySum;Status;Pdc1;Udc;Temp;WR;Pac;DaySum;Status;Pdc1;Udc;Temp;WR;Pac;DaySum;Status;Pdc1;Pdc2;Udc1;Udc2;Temp;WR;Pac;DaySum;Status;Pdc1;Pdc2;Udc1;Udc2;Temp;WR;Pac;DaySum;Status;Pdc1;Udc;Temp;WR;Pac;DaySum;Status;Pdc1;Udc;Temp;WR;Pac;DaySum;Status;Pdc1;Udc;Temp
27.02.20;23:55:00;1;312;10629;0;2;0;12006;0;0;0;0;3;0;7789;0;0;0;0;4;0;11441;0;0;0;0;5;0;27607;0;0;0;0;0;0;6;0;20783;0;0;0;0;0;0;7;0;15962;0;0;0;0;8;0;16204;0;0;0;0;9;0;8803;0;0;0;0
27.02.20;23:50:00;1;281;10603;0;2;0;12006;0;0;0;0;3;0;7789;0;0;0;0;4;0;11441;0;0;0;0;5;0;27607;0;0;0;0;0;0;6;0;20783;0;0;0;0;0;0;7;0;15962;0;0;0;0;8;0;16204;0;0;0;0;9;0;8803;0;0;0;0
27.02.20;23:45:00;1;283;10579;0;2;0;12006;0;0;0;0;3;0;7789;0;0;0;0;4;0;11441;0;0;0;0;5;0;27607;0;0;0;0;0;0;6;0;20783;0;0;0;0;0;0;7;0;15962;0;0;0;0;8;0;16204;0;0;0;0;9;0;8803;0;0;0;0
27.02.20;23:40:00;1;237;10555;0;2;0;12006;0;0;0;0;3;0;7789;0;0;0;0;4;0;11441;0;0;0;0;5;0;27607;0;0;0;0;0;0;6;0;20783;0;0;0;0;0;0;7;0;15962;0;0;0;0;8;0;16204;0;0;0;0;9;0;8803;0;0;0;0
27.02.20;23:35:00;1;238;10535;0;2;0;12006;0;0;0;0;3;0;7789;0;0;0;0;4;0;11441;0;0;0;0;5;0;27607;0;0;0;0;0;0;6;0;20783;0;0;0;0;0;0;7;0;15962;0;0;0;0;8;0;16204;0;0;0;0;9;0;8803;0;0;0;0
27.02.20;23:30:00;1;293;10515;0;2;0;12006;0;0;0;0;3;0;7789;0;0;0;0;4;0;11441;0;0;0;0;5;0;27607;0;0;0;0;0;0;6;0;20783;0;0;0;0;0;0;7;0;15962;0;0;0;0;8;0;16204;0;0;0;0;9;0;8803;0;0;0;0
27.02.20;23:25:00;1;239;10491;0;2;0;12006;0;0;0;0;3;0;7789;0;0;0;0;4;0;11441;0;0;0;0;5;0;27607;0;0;0;0;0;0;6;0;20783;0;0;0;0;0;0;7;0;15962;0;0;0;0;8;0;16204;0;0;0;0;9;0;8803;0;0;0;0
27.02.20;23:20:00;1;239;10471;0;2;0;12006;0;0;0;0;3;0;7789;0;0;0;0;4;0;11441;0;0;0;0;5;0;27607;0;0;0;0;0;0;6;0;20783;0;0;0;0;0;0;7;0;15962;0;0;0;0;8;0;16204;0;0;0;0;9;0;8803;0;0;0;0
27.02.20;23:15:00;1;239;10451;0;2;0;12006;0;0;0;0;3;0;7789;0;0;0;0;4;0;11441;0;0;0;0;5;0;27607;0;0;0;0;0;0;6;0;20783;0;0;0;0;0;0;7;0;15962;0;0;0;0;8;0;16204;0;0;0;0;9;0;8803;0;0;0;0
27.02.20;23:10:00;1;239;10431;0;2;0;12006;0;0;0;0;3;0;7789;0;0;0;0;4;0;11441;0;0;0;0;5;0;27607;0;0;0;0;0;0;6;0;20783;0;0;0;0;0;0;7;0;15962;0;0;0;0;8;0;16204;0;0;0;0;9;0;8803;0;0;0;0
27.02.20;23:05:00;1;345;10411;0;2;0;12006;0;0;0;0;3;0;7789;0;0;0;0;4;0;11441;0;0;0;0;5;0;27607;0;0;0;0;0;0;6;0;20783;0;0;0;0;0;0;7;0;15962;0;0;0;0;8;0;16204;0;0;0;0;9;0;8803;0;0;0;0
27.02.20;23:00:00;1;327;10381;0;2;0;12006;0;0;0;0;3;0;7789;0;0;0;0;4;0;11441;0;0;0;0;5;0;27607;0;0;0;0;0;0;6;0;20783;0;0;0;0;0;0;7;0;15962;0;0;0;0;8;0;16204;0;0;0;0;9;0;8803;0;0;0;0
27.02.20;22:55:00;1;356;10353;0;2;0;12006;0;0;0;0;3;0;7789;0;0;0;0;4;0;11441;0;0;0;0;5;0;27607;2;0;0;0;0;0;6;0;20783;2;0;0;0;0;0;7;0;15962;0;0;0;0;8;0;16204;0;0;0;0;9;0;8803;0;0;0;0
27.02.20;22:50:00;1;310;10323;0;2;0;12006;0;0;0;0;3;0;7789;0;0;0;0;4;0;11441;0;0;0;0;5;0;27607;2;0;0;0;0;0;6;0;20783;2;0;0;0;0;0;7;0;15962;0;0;0;0;8;0;16204;0;0;0;0;9;0;8803;0;0;0;0
27.02.20;22:45:00;1;508;10297;0;2;0;12006;0;0;0;0;3;0;7789;0;0;0;0;4;0;11441;0;0;0;0;5;0;27607;2;0;0;0;0;0;6;0;20783;2;0;0;0;0;0;7;0;15962;0;0;0;0;8;0;16204;0;0;0;0;9;0;8803;0;0;0;0
27.02.20;22:40:00;1;353;10262;0;2;0;12006;0;0;0;0;3;0;7789;0;0;0;0;4;0;11441;0;0;0;0;5;0;27607;2;0;0;0;0;0;6;0;20783;2;0;0;0;0;0;7;0;15962;0;0;0;0;8;0;16204;0;0;0;0;9;0;8803;0;0;0;0
27.02.20;22:35:00;1;315;10231;0;2;0;12006;0;0;0;0;3;0;7789;0;0;0;0;4;0;11441;0;0;0;0;5;0;27607;2;0;0;0;0;0;6;0;20783;2;0;0;0;0;0;7;0;15962;0;0;0;0;8;0;16204;0;0;0;0;9;0;8803;0;0;0;0
27.02.20;22:30:00;1;365;10205;0;2;0;12006;0;0;0;0;3;0;7789;0;0;0;0;4;0;11441;0;0;0;0;5;0;27607;2;0;0;0;0;0;6;0;20783;2;0;0;0;0;0;7;0;15962;0;0;0;0;8;0;16204;0;0;0;0;9;0;8803;0;0;0;0
27.02.20;22:25:00;1;594;10172;0;2;0;12006;0;0;0;0;3;0;7789;0;0;0;0;4;0;11441;0;0;0;0;5;0;27607;2;0;0;0;0;0;6;0;20783;2;0;0;0;0;0;7;0;15962;0;0;0;0;8;0;16204;0;0;0;0;9;0;8803;0;0;0;0
27.02.20;22:20:00;1;625;10121;0;2;0;12006;0;0;0;0;3;0;7789;0;0;0;0;4;0;11441;0;0;0;0;5;0;27607;2;0;0;0;0;0;6;0;20783;2;0;0;0;0;0;7;0;15962;0;0;0;0;8;0;16204;0;0;0;0;9;0;8803;0;0;0;0
27.02.20;22:15:00;1;775;10069;0;2;0;12006;0;0;0;0;3;0;7789;0;0;0;0;4;0;11441;0;0;0;0;5;0;27607;2;0;0;0;0;0;6;0;20783;2;0;0;0;0;0;7;0;15962;0;0;0;0;8;0;16204;0;0;0;0;9;0;8803;0;0;0;0
27.02.20;22:10:00;1;769;10002;0;2;0;12006;0;0;0;0;3;0;7789;0;0;0;0;4;0;11441;0;0;0;0;5;0;27607;2;0;0;0;0;0;6;0;20783;2;0;0;0;0;0;7;0;15962;0;0;0;0;8;0;16204;0;0;0;0;9;0;8803;0;0;0;0
27.02.20;22:05:00;1;774;9938;0;2;0;12006;0;0;0;0;3;0;7789;0;0;0;0;4;0;11441;0;0;0;0;5;0;27607;2;0;0;0;0;0;6;0;20783;2;0;0;0;0;0;7;0;15962;0;0;0;0;8;0;16204;0;0;0;0;9;0;8803;0;0;0;0
27.02.20;22:00:00;1;756;9873;0;2;0;12006;0;0;0;0;3;0;7789;0;0;0;0;4;0;11441;0;0;0;0;5;0;27607;2;0;0;0;0;0;6;0;20783;2;0;0;0;0;0;7;0;15962;0;0;0;0;8;0;16204;0;0;0;0;9;0;8803;0;0;0;0
27.02.20;21:55:00;1;772;9810;0;2;0;12006;0;0;0;0;3;0;7789;0;0;0;0;4;0;11441;0;0;0;0;5;0;27607;2;0;0;0;0;0;6;0;20783;2;0;0;0;0;0;7;0;15962;0;0;0;0;8;0;16204;0;0;0;0;9;0;8803;0;0;0;0
27.02.20;21:50:00;1;1547;9745;0;2;0;12006;0;0;0;0;3;0;7789;0;0;0;0;4;0;11441;0;0;0;0;5;0;27607;2;0;0;0;0;0;6;0;20783;2;0;0;0;0;0;7;0;15962;0;0;0;0;8;0;16204;0;0;0;0;9;0;8803;0;0;0;0
27.02.20;21:45:00;1;792;9614;0;2;0;12006;0;0;0;0;3;0;7789;0;0;0;0;4;0;11441;0;0;0;0;5;0;27607;2;0;0;0;0;0;6;0;20783;2;0;0;0;0;0;7;0;15962;0;0;0;0;8;0;16204;0;0;0;0;9;0;8803;0;0;0;0
27.02.20;21:40:00;1;709;9549;0;2;0;12006;0;0;0;0;3;0;7789;0;0;0;0;4;0;11441;0;0;0;0;5;0;27607;2;0;0;0;0;0;6;0;20783;2;0;0;0;0;0;7;0;15962;0;0;0;0;8;0;16204;0;0;0;0;9;0;8803;0;0;0;0
27.02.20;21:35:00;1;746;9490;0;2;0;12006;0;0;0;0;3;0;7789;0;0;0;0;4;0;11441;0;0;0;0;5;0;27607;2;0;0;0;0;0;6;0;20783;2;0;0;0;0;0;7;0;15962;0;0;0;0;8;0;16204;0;0;0;0;9;0;8803;0;0;0;0
27.02.20;21:30:00;1;810;9424;0;2;0;12006;0;0;0;0;3;0;7789;0;0;0;0;4;0;11441;0;0;0;0;5;0;27607;2;0;0;0;0;0;6;0;20783;2;0;0;0;0;0;7;0;15962;0;0;0;0;8;0;16204;0;0;0;0;9;0;8803;0;0;0;0
27.02.20;21:25:00;1;889;9356;0;2;0;12006;0;0;0;0;3;0;7789;0;0;0;0;4;0;11441;0;0;0;0;5;0;27607;2;0;0;0;0;0;6;0;20783;2;0;0;0;0;0;7;0;15962;0;0;0;0;8;0;16204;0;0;0;0;9;0;8803;0;0;0;0
27.02.20;21:20:00;1;829;9282;0;2;0;12006;0;0;0;0;3;0;7789;0;0;0;0;4;0;11441;0;0;0;0;5;0;27607;2;0;0;0;0;0;6;0;20783;2;0;0;0;0;0;7;0;15962;0;0;0;0;8;0;16204;0;0;0;0;9;0;8803;0;0;0;0
27.02.20;21:15:00;1;903;9213;0;2;0;12006;0;0;0;0;3;0;7789;0;0;0;0;4;0;11441;0;0;0;0;5;0;27607;2;0;0;0;0;0;6;0;20783;2;0;0;0;0;0;7;0;15962;0;0;0;0;8;0;16204;0;0;0;0;9;0;8803;0;0;0;0
27.02.20;21:10:00;1;767;9146;0;2;0;12006;0;0;0;0;3;0;7789;0;0;0;0;4;0;11441;0;0;0;0;5;0;27607;2;0;0;0;0;0;6;0;20783;2;0;0;0;0;0;7;0;15962;0;0;0;0;8;0;16204;0;0;0;0;9;0;8803;0;0;0;0
27.02.20;21:05:00;1;803;9081;0;2;0;12006;0;0;0;0;3;0;7789;0;0;0;0;4;0;11441;0;0;0;0;5;0;27607;2;0;0;0;0;0;6;0;20783;2;0;0;0;0;0;7;0;15962;0;0;0;0;8;0;16204;0;0;0;0;9;0;8803;0;0;0;0
27.02.20;21:00:00;1;844;9013;0;2;0;12006;0;0;0;0;3;0;7789;0;0;0;0;4;0;11441;0;0;0;0;5;0;27607;2;0;0;0;0;0;6;0;20783;2;0;0;0;0;0;7;0;15962;0;0;0;0;8;0;16204;0;0;0;0;9;0;8803;0;0;0;0
27.02.20;20:55:00;1;823;8943;0;2;0;12006;0;0;0;0;3;0;7789;0;0;0;0;4;0;11441;0;0;0;0;5;0;27607;2;0;0;0;0;0;6;0;20783;2;0;0;0;0;0;7;0;15962;0;0;0;0;8;0;16204;0;0;0;0;9;0;8803;0;0;0;0
27.02.20;20:50:00;1;839;8874;0;2;0;12006;0;0;0;0;3;0;7789;0;0;0;0;4;0;11441;0;0;0;0;5;0;27607;2;0;0;0;0;0;6;0;20783;2;0;0;0;0;0;7;0;15962;0;0;0;0;8;0;16204;0;0;0;0;9;0;8803;0;0;0;0
27.02.20;20:45:00;1;845;8803;0;2;0;12006;0;0;0;0;3;0;7789;0;0;0;0;4;0;11441;0;0;0;0;5;0;27607;2;0;0;0;0;0;6;0;20783;2;0;0;0;0;0;7;0;15962;0;0;0;0;8;0;16204;0;0;0;0;9;0;8803;0;0;0;0
27.02.20;20:40:00;1;913;8733;0;2;0;12006;0;0;0;0;3;0;7789;0;0;0;0;4;0;11441;0;0;0;0;5;0;27607;2;0;0;0;0;0;6;0;20783;2;0;0;0;0;0;7;0;15962;0;0;0;0;8;0;16204;0;0;0;0;9;0;8803;0;0;0;0
27.02.20;20:35:00;1;1053;8655;0;2;0;12006;0;0;0;0;3;0;7789;0;0;0;0;4;0;11441;0;0;0;0;5;0;27607;2;0;0;0;0;0;6;0;20783;2;0;0;0;0;0;7;0;15962;0;0;0;0;8;0;16204;0;0;0;0;9;0;8803;0;0;0;0
27.02.20;20:30:00;1;1194;8566;0;2;0;12006;0;0;0;0;3;0;7789;0;0;0;0;4;0;11441;0;0;0;0;5;0;27607;2;0;0;0;0;0;6;0;20783;2;0;0;0;0;0;7;0;15962;0;0;0;0;8;0;16204;0;0;0;0;9;0;8803;0;0;0;0
27.02.20;20:25:00;1;1012;8467;0;2;0;12006;0;0;0;0;3;0;7789;0;0;0;0;4;0;11441;0;0;0;0;5;0;27607;2;0;0;0;0;0;6;0;20783;2;0;0;0;0;0;7;0;15962;0;0;0;0;8;0;16204;0;0;0;0;9;0;8803;0;0;0;0
27.02.20;20:20:00;1;1090;8383;0;2;0;12006;0;0;0;0;3;0;7789;0;0;0;0;4;0;11441;0;0;0;0;5;0;27607;2;0;0;0;0;0;6;0;20783;2;0;0;0;0;0;7;0;15962;0;0;0;0;8;0;16204;0;0;0;0;9;0;8803;0;0;0;0
27.02.20;20:15:00;1;1298;8287;0;2;0;12006;0;0;0;0;3;0;7789;0;0;0;0;4;0;11441;0;0;0;0;5;0;27607;2;0;0;0;0;0;6;0;20783;2;0;0;0;0;0;7;0;15962;0;0;0;0;8;0;16204;0;0;0;0;9;0;8803;0;0;0;0
27.02.20;20:10:00;1;1185;8176;0;2;0;12006;0;0;0;0;3;0;7789;0;0;0;0;4;0;11441;0;0;0;0;5;0;27607;2;0;0;0;0;0;6;0;20783;2;0;0;0;0;0;7;0;15962;0;0;0;0;8;0;16204;0;0;0;0;9;0;8803;0;0;0;0
27.02.20;20:05:00;1;1194;8077;0;2;0;12006;0;0;0;0;3;0;7789;0;0;0;0;4;0;11441;0;0;0;0;5;0;27607;2;0;0;0;0;0;6;0;20783;2;0;0;0;0;0;7;0;15962;0;0;0;0;8;0;16204;0;0;0;0;9;0;8803;0;0;0;0
27.02.20;20:00:00;1;1200;7977;0;2;0;12006;0;0;0;0;3;0;7789;0;0;0;0;4;0;11441;0;0;0;0;5;0;27607;2;0;0;0;0;0;6;0;20783;2;0;0;0;0;0;7;0;15962;0;0;0;0;8;0;16204;0;0;0;0;9;0;8803;0;0;0;0
27.02.20;19:55:00;1;1227;7877;0;2;0;12006;0;0;0;0;3;0;7789;0;0;0;0;4;0;11441;0;0;0;0;5;0;27607;2;0;0;0;0;0;6;0;20783;2;0;0;0;0;0;7;0;15962;0;0;0;0;8;0;16204;0;0;0;0;9;0;8803;0;0;0;0
27.02.20;19:50:00;1;1093;7777;0;2;0;12006;0;0;0;0;3;0;7789;0;0;0;0;4;0;11441;0;0;0;0;5;0;27607;2;0;0;0;0;0;6;0;20783;2;0;0;0;0;0;7;0;15962;0;0;0;0;8;0;16204;0;0;0;0;9;0;8803;0;0;0;0
27.02.20;19:45:00;1;1106;7686;0;2;0;12006;0;0;0;0;3;0;7789;0;0;0;0;4;0;11441;0;0;0;0;5;0;27607;2;0;0;0;0;0;6;0;20783;2;0;0;0;0;0;7;0;15962;0;0;0;0;8;0;16204;0;0;0;0;9;0;8803;0;0;0;0
27.02.20;19:40:00;1;1127;7594;0;2;0;12006;0;0;0;0;3;0;7789;0;0;0;0;4;0;11441;0;0;0;0;5;0;27607;2;0;0;0;0;0;6;0;20783;2;0;0;0;0;0;7;0;15962;0;0;0;0;8;0;16204;0;0;0;0;9;0;8803;0;0;0;0
27.02.20;19:35:00;1;1029;7504;0;2;0;12006;0;0;0;0;3;0;7789;0;0;0;0;4;0;11441;0;0;0;0;5;0;27607;2;0;0;0;0;0;6;0;20783;2;0;0;0;0;0;7;0;15962;0;0;0;0;8;0;16204;0;0;0;0;9;0;8803;0;0;0;0
27.02.20;19:30:00;1;1028;7418;0;2;0;12006;0;0;0;0;3;0;7789;0;0;0;0;4;0;11441;0;0;0;0;5;0;27607;2;0;0;0;0;0;6;0;20783;2;0;0;0;0;0;7;0;15962;0;0;0;0;8;0;16204;0;0;0;0;9;0;8803;0;0;0;0
27.02.20;19:25:00;1;992;7332;0;2;0;12006;0;0;0;0;3;0;7789;0;0;0;0;4;0;11441;0;0;0;0;5;0;27607;2;0;0;0;0;0;6;0;20783;2;0;0;0;0;0;7;0;15962;0;0;0;0;8;0;16204;0;0;0;0;9;0;8803;0;0;0;0
27.02.20;19:20:00;1;975;7250;0;2;0;12006;0;0;0;0;3;0;7789;0;0;0;0;4;0;11441;0;0;0;0;5;0;27607;2;0;0;0;0;0;6;0;20783;2;0;0;0;0;0;7;0;15962;0;0;0;0;8;0;16204;0;0;0;0;9;0;8803;0;0;0;0
27.02.20;19:15:00;1;925;7169;0;2;0;12006;0;0;0;0;3;0;7789;0;0;0;0;4;0;11441;0;0;0;0;5;0;27607;2;0;0;0;0;0;6;0;20783;2;0;0;0;0;0;7;0;15962;0;0;0;0;8;0;16204;0;0;0;0;9;0;8803;0;0;0;0
27.02.20;19:10:00;1;1031;7092;0;2;0;12006;0;0;0;0;3;0;7789;0;0;0;0;4;0;11441;0;0;0;0;5;0;27607;2;0;0;0;0;0;6;0;20783;2;0;0;0;0;0;7;0;15962;0;0;0;0;8;0;16204;0;0;0;0;9;0;8803;0;0;0;0
27.02.20;19:05:00;1;1099;7005;0;2;0;12006;0;0;0;0;3;0;7789;0;0;0;0;4;0;11441;0;0;0;0;5;0;27607;2;0;0;0;0;0;6;0;20783;2;0;0;0;0;0;7;0;15962;0;0;0;0;8;0;16204;0;0;0;0;9;0;8803;0;0;0;0
27.02.20;19:00:00;1;1091;6913;0;2;0;12006;0;0;0;0;3;0;7789;0;0;0;0;4;0;11441;0;0;0;0;5;0;27607;2;0;0;0;0;0;6;0;20783;2;0;0;0;0;0;7;0;15962;0;0;0;0;8;0;16204;0;0;0;0;9;0;8803;0;0;0;0
27.02.20;18:55:00;1;1100;6822;0;2;0;12006;0;0;0;0;3;0;7789;0;0;0;0;4;0;11441;0;0;0;0;5;0;27607;2;0;0;0;0;0;6;0;20783;2;0;0;0;0;0;7;0;15962;0;0;0;0;8;0;16204;0;0;0;0;9;0;8803;0;0;0;0
27.02.20;18:50:00;1;1023;6730;0;2;0;12006;0;0;0;0;3;0;7789;0;0;0;0;4;0;11441;0;0;0;0;5;0;27607;2;0;0;0;0;0;6;0;20783;2;0;0;0;0;0;7;0;15962;0;0;0;0;8;0;16204;0;0;0;0;9;0;8803;0;0;0;0
27.02.20;18:45:00;1;759;6649;0;2;0;12006;0;0;0;0;3;0;7789;0;0;0;0;4;0;11441;0;0;0;0;5;0;27607;2;0;0;0;0;0;6;0;20783;2;0;0;0;0;0;7;0;15962;0;0;0;0;8;0;16204;0;0;0;0;9;0;8803;0;0;0;0
27.02.20;18:40:00;1;742;6585;0;2;0;12006;0;0;0;0;3;0;7789;0;0;0;0;4;0;11441;0;0;0;0;5;0;27607;2;0;0;0;0;0;6;0;20783;2;0;0;0;0;0;7;0;15962;0;0;0;0;8;0;16204;0;0;0;0;9;0;8803;0;0;0;0
27.02.20;18:35:00;1;764;6523;0;2;0;12006;0;0;0;0;3;0;7789;0;0;0;0;4;0;11441;0;0;0;0;5;0;27607;2;0;0;0;0;0;6;0;20783;2;0;0;0;0;0;7;0;15962;0;0;0;0;8;0;16204;0;0;0;0;9;0;8803;0;0;0;0
27.02.20;18:30:00;1;765;6459;0;2;0;12006;0;0;0;0;3;0;7789;0;0;0;0;4;0;11441;0;0;0;0;5;0;27607;2;0;0;0;0;0;6;0;20783;2;0;0;0;0;0;7;0;15962;0;0;0;0;8;0;16204;0;0;0;0;9;0;8803;0;0;0;0
27.02.20;18:25:00;1;733;6394;0;2;0;12006;0;0;0;0;3;0;7789;0;0;0;0;4;0;11441;0;0;0;0;5;0;27607;2;0;0;0;0;0;6;0;20783;2;0;0;0;0;0;7;0;15962;0;0;0;0;8;0;16204;0;0;0;0;9;0;8803;0;0;0;0
27.02.20;18:20:00;1;707;6333;0;2;0;12006;0;0;0;0;3;0;7789;0;0;0;0;4;0;11441;0;0;0;0;5;0;27607;2;0;0;0;0;0;6;0;20783;2;0;0;0;0;0;7;0;15962;0;0;0;0;8;0;16204;0;0;0;0;9;0;8803;0;0;0;0
27.02.20;18:15:00;1;718;6274;0;2;0;12006;0;0;0;0;3;0;7789;0;0;0;0;4;0;11441;0;0;0;0;5;0;27607;2;0;0;0;0;0;6;0;20783;2;0;0;0;0;0;7;0;15962;0;0;0;0;8;0;16204;0;0;0;0;9;0;8803;0;0;0;0
27.02.20;18:10:00;1;758;6214;0;2;0;12006;0;0;0;0;3;0;7789;0;0;0;0;4;0;11441;0;0;0;0;5;0;27607;2;0;0;0;0;0;6;0;20783;2;0;0;0;0;0;7;0;15962;0;0;0;0;8;0;16204;0;0;0;0;9;0;8803;0;0;0;0
27.02.20;18:05:00;1;761;6151;0;2;0;12006;0;0;0;0;3;0;7789;0;0;0;0;4;0;11441;0;0;0;0;5;0;27607;2;0;0;0;0;0;6;0;20783;2;0;0;0;0;0;7;0;15962;0;0;0;0;8;0;16204;0;0;0;0;9;0;8803;0;0;0;0
27.02.20;18:00:00;1;774;6088;0;2;0;12006;0;0;0;0;3;0;7789;0;0;0;0;4;0;11441;0;0;0;0;5;0;27607;2;0;0;0;0;0;6;0;20783;2;0;0;0;0;0;7;0;15962;0;0;0;0;8;0;16204;0;0;0;0;9;0;8803;0;0;0;0
27.02.20;17:55:00;1;713;6019;0;2;0;12006;0;0;130;6;3;0;7789;2;0;277;15;4;0;11441;0;0;0;0;5;0;27607;2;0;0;0;0;0;6;0;20783;2;0;0;0;0;0;7;0;15962;0;0;0;0;8;0;16204;0;0;0;0;9;0;8803;0;0;0;0
27.02.20;17:50:00;1;521;5968;0;2;0;12006;6;0;294;12;3;0;7789;6;0;327;15;4;0;11441;0;0;53;8;5;0;27607;2;0;0;0;0;0;6;0;20783;2;0;0;0;0;1;7;0;15962;0;0;0;0;8;0;16204;0;0;0;0;9;0;8803;0;0;0;0
27.02.20;17:45:00;1;521;5924;0;2;0;12006;6;0;322;12;3;0;7789;6;2;377;15;4;0;11441;1;0;99;12;5;0;27607;1;0;11;251;274;22;6;0;20783;2;3;1;107;213;12;7;0;15962;0;0;0;0;8;0;16204;0;0;0;0;9;0;8803;0;0;49;2
27.02.20;17:40:00;1;551;5880;0;2;0;12006;6;0;363;12;3;0;7789;6;1;427;15;4;0;11441;1;0;152;13;5;0;27607;23;0;0;398;532;23;6;0;20783;23;6;3;180;518;21;7;0;15962;2;0;290;16;8;0;16204;6;0;294;16;9;0;8803;6;0;314;11
27.02.20;17:35:00;1;525;5834;0;2;0;12006;6;0;386;12;3;1;7789;6;3;458;16;4;0;11441;1;0;195;13;5;7;27607;4;0;0;405;630;23;6;0;20783;23;6;3;220;562;22;7;0;15962;6;0;371;16;8;0;16204;6;0;303;12;9;0;8803;6;0;406;12
27.02.20;17:30:00;1;682;5787;0;2;0;12006;6;0;402;13;3;1;7789;6;3;488;16;4;0;11441;1;0;203;14;5;5;27607;1;0;0;424;670;24;6;0;20783;8;5;2;435;578;22;7;0;15962;6;1;411;16;8;0;16204;3;1;406;16;9;1;8803;3;3;436;12
27.02.20;17:25:00;1;682;5730;0;2;0;12006;6;0;407;13;3;2;7789;6;5;492;16;4;0;11441;3;0;217;14;5;13;27606;4;1;0;421;669;24;6;0;20783;23;4;3;464;584;23;7;1;15962;6;2;427;17;8;0;16204;6;2;432;16;9;0;8803;6;2;470;12
27.02.20;17:20:00;1;728;5673;0;2;0;12006;6;0;410;13;3;2;7789;6;4;486;16;4;0;11441;3;0;223;14;5;72;27605;4;10;11;380;606;25;6;0;20783;23;2;4;492;588;23;7;2;15962;6;1;437;17;8;0;16204;6;3;425;17;9;0;8803;6;2;480;12
27.02.20;17:15:00;1;709;5611;0;2;1;12006;6;8;405;14;3;3;7789;3;12;473;16;4;1;11441;3;1;200;15;5;88;27598;4;21;16;380;606;25;6;43;20783;1;18;22;481;442;24;7;0;15962;6;2;445;17;8;0;16204;6;2;448;17;9;1;8803;6;3;492;12
27.02.20;17:10:00;1;628;5553;0;2;37;12006;6;65;381;14;3;4;7788;6;11;523;16;4;21;11441;3;22;199;15;5;154;27591;4;56;51;380;606;25;6;93;20778;4;46;49;449;406;24;7;0;15962;6;0;401;14;8;1;16204;6;9;477;17;9;1;8803;6;6;526;13
27.02.20;17:05:00;1;524;5501;0;2;62;12003;4;96;368;14;3;6;7788;6;13;532;17;4;21;11439;3;21;198;15;5;182;27578;4;74;39;380;606;25;6;111;20771;4;51;56;449;406;24;7;29;15962;6;55;386;18;8;31;16204;6;57;390;17;9;2;8803;6;8;538;13
27.02.20;17:00:00;1;566;5456;0;2;53;11998;4;87;355;14;3;4;7788;6;9;530;17;4;14;11437;3;14;198;15;5;166;27563;4;64;51;380;606;25;6;102;20761;4;44;50;449;406;24;7;24;15960;4;43;410;18;8;26;16201;4;44;411;18;9;4;8803;4;13;516;13
27.02.20;16:55:00;1;522;5409;0;2;63;11994;4;98;356;15;3;5;7787;6;11;532;17;4;28;11436;3;29;198;15;5;186;27549;4;79;70;380;606;25;6;114;20753;4;69;72;449;406;24;7;21;15958;6;44;333;14;8;24;16199;6;44;336;14;9;4;8802;6;10;537;13
27.02.20;16:50:00;1;528;5365;0;2;103;11988;4;141;381;15;3;48;7787;6;80;463;17;4;69;11433;3;71;198;16;5;261;27533;4;116;98;380;606;26;6;162;20743;4;83;79;449;406;24;7;78;15956;4;109;436;18;8;80;16196;4;115;438;18;9;7;8802;6;11;555;14
27.02.20;16:45:00;1;451;5321;0;2;118;11980;4;155;378;15;3;64;7783;4;109;485;18;4;80;11428;3;83;199;16;5;287;27510;4;132;107;380;606;26;6;179;20729;4;81;80;449;406;24;7;105;15950;4;137;418;18;8;99;16190;4;138;420;18;9;22;8801;6;33;530;14
27.02.20;16:40:00;1;449;5284;0;2;117;11970;4;152;368;15;3;64;7778;4;106;470;18;4;76;11421;3;79;199;16;5;282;27487;4;127;107;380;606;26;6;175;20714;4;107;101;449;406;24;7;102;15941;4;133;403;19;8;101;16182;4;136;404;18;9;8;8800;6;13;562;14
27.02.20;16:35:00;1;454;5246;0;2;119;11960;4;157;377;15;3;65;7772;4;106;475;18;4;83;11415;3;86;199;16;5;292;27463;4;134;112;380;606;26;6;180;20700;4;85;85;449;406;25;7;101;15932;4;136;423;19;8;103;16173;4;141;423;18;9;10;8799;6;16;558;14
27.02.20;16:30:00;1;613;5207;0;2;145;11950;4;185;384;16;3;83;7767;4;123;475;18;4;109;11408;3;113;219;16;5;341;27439;4;160;137;380;606;26;6;207;20685;4;97;97;449;406;25;7;121;15924;4;163;444;19;8;128;16165;4;164;433;18;9;68;8798;4;99;463;15
27.02.20;16:25:00;1;425;5157;0;2;152;11938;4;189;375;16;3;87;7760;4;127;464;18;4;114;11399;5;118;221;17;5;349;27410;4;167;140;380;606;26;6;216;20667;4;115;119;449;406;25;7;128;15914;4;172;443;19;8;138;16154;4;178;420;19;9;74;8793;4;108;475;15
27.02.20;16:20:00;1;264;5124;0;2;179;11926;4;219;380;16;3;103;7753;4;145;497;18;4;134;11389;5;140;231;17;5;408;27381;4;196;165;395;606;26;6;277;20649;4;122;137;481;491;25;7;152;15903;4;197;428;19;8;157;16143;4;197;424;19;9;84;8787;4;116;496;16
27.02.20;16:15:00;1;210;5102;0;2;228;11911;4;272;390;17;3;137;7744;4;182;504;18;4;186;11378;5;194;231;17;5;505;27346;4;260;203;405;590;26;6;382;20625;4;181;202;578;550;25;7;216;15891;4;264;451;19;8;183;16125;0;217;363;15;9;119;8780;4;153;506;16
27.02.20;16:10:00;1;210;5084;0;2;249;11892;4;290;381;17;3;150;7733;4;191;486;19;4;201;11362;5;209;229;17;5;551;27304;4;274;223;403;640;26;6;407;20592;4;181;195;576;557;25;7;233;15872;4;282;435;20;8;243;16111;4;288;464;19;9;129;8770;4;165;507;16
27.02.20;16:05:00;1;210;5066;0;2;300;11871;4;345;400;17;3;182;7720;4;226;485;19;4;248;11346;5;258;233;18;5;648;27258;4;325;266;410;661;27;6;486;20558;4;229;245;580;563;25;7;288;15853;4;342;450;20;8;299;16091;4;340;472;19;9;161;8759;4;196;512;16
27.02.20;16:00:00;1;260;5049;0;2;338;11846;4;383;399;18;3;206;7705;4;250;496;19;4;281;11325;5;292;234;18;5;719;27202;4;354;294;411;657;27;6;536;20517;4;256;269;580;561;25;7;344;15829;4;391;457;20;8;342;16065;4;393;478;20;9;189;8745;4;224;519;17
27.02.20;15:55:00;1;210;5027;0;2;384;11818;4;434;400;18;3;234;7688;4;282;513;19;4;324;11301;5;337;235;18;5;823;27142;4;409;338;418;665;27;6;608;20472;4;309;322;584;565;25;7;384;15801;4;433;456;20;8;389;16037;4;433;471;20;9;209;8730;4;248;518;17
27.02.20;15:50:00;1;210;5009;0;2;506;11786;4;558;404;18;3;310;7668;4;365;510;20;4;435;11274;5;453;238;19;5;1059;27071;4;541;442;422;677;27;6;789;20420;4;406;410;592;572;25;7;522;15769;4;569;463;21;8;518;16005;4;571;473;20;9;278;8712;4;323;531;17
27.02.20;15:45:00;1;261;4992;0;2;560;11744;4;614;398;19;3;347;7643;4;400;513;20;4;484;11238;5;504;243;19;5;1172;26981;4;586;488;418;683;27;6;867;20353;4;441;442;590;568;25;7;583;15725;4;642;493;21;8;595;15962;4;653;484;20;9;322;8689;4;368;528;18
27.02.20;15:40:00;1;317;4969;0;2;633;11697;4;692;398;19;3;394;7614;4;449;507;20;4;553;11198;5;576;239;19;5;1310;26884;4;664;550;420;692;27;6;974;20280;4;503;504;594;570;25;7;681;15677;4;732;485;21;8;681;15913;4;736;485;21;9;366;8662;4;415;528;18
27.02.20;15:35:00;1;318;4943;0;2;742;11644;4;807;409;20;3;463;7581;4;522;509;21;4;653;11152;5;680;241;20;5;1517;26773;4;774;643;421;696;28;6;1128;20198;4;572;572;597;571;25;7;792;15621;4;861;489;21;8;808;15857;4;862;481;21;9;433;8632;4;479;528;18
27.02.20;15:30:00;1;409;4916;0;2;845;11582;4;911;406;20;3;530;7542;4;591;522;21;4;746;11098;5;778;240;20;5;1723;26646;4;879;731;429;695;28;6;1281;20103;4;651;652;597;573;25;7;917;15555;4;979;483;21;8;919;15788;4;983;485;21;9;497;8596;4;552;530;19
27.02.20;15:25:00;1;275;4886;0;2;910;11512;4;981;415;20;3;574;7498;4;640;524;21;4;815;11035;5;848;242;20;5;1841;26502;4;961;783;429;691;28;6;1373;19995;4;711;699;601;573;26;7;1005;15478;4;1068;491;22;8;1007;15712;4;1071;484;21;9;544;8554;4;598;522;19
27.02.20;15:20:00;1;275;4863;0;2;966;11436;4;1038;408;21;3;608;7450;4;674;524;21;4;857;10968;5;893;243;20;5;1930;26349;4;1013;829;424;707;28;6;1449;19880;4;768;760;601;579;26;7;1051;15394;4;1127;479;22;8;1052;15628;4;1126;484;21;9;574;8509;4;633;538;19
27.02.20;15:15:00;1;279;4840;0;2;1067;11356;4;1142;411;21;3;673;7400;4;739;524;21;4;951;10897;5;991;243;21;5;2147;26187;4;1134;924;432;700;28;6;1598;19759;4;830;813;605;577;26;7;1162;15307;4;1241;480;22;8;1170;15542;4;1246;487;22;9;633;8462;4;697;542;19
27.02.20;15:10:00;1;232;4816;0;2;1149;11268;4;1227;414;21;3;729;7344;4;797;527;22;4;1026;10817;5;1068;247;21;5;2283;26008;4;1194;982;434;698;28;6;1709;19624;4;887;866;608;577;26;7;1297;15211;4;1377;494;22;8;1296;15443;4;1379;496;22;9;708;8409;4;770;538;20
27.02.20;15:05:00;1;212;4798;0;2;1089;11172;4;1165;408;21;3;689;7283;4;758;530;22;4;970;10732;5;1010;248;21;5;2133;25819;4;1136;914;432;704;28;6;1605;19482;4;825;815;605;582;26;7;1245;15102;4;1325;496;22;8;1252;15335;4;1328;489;22;9;677;8349;4;745;544;20
27.02.20;15:00:00;1;262;4780;0;2;1032;11081;4;1106;409;22;3;656;7226;4;720;525;22;4;922;10651;5;960;247;21;5;2057;25643;4;1074;875;429;702;28;6;1530;19350;4;795;782;605;575;26;7;1196;14998;4;1270;489;22;8;1196;15231;4;1268;482;22;9;650;8293;4;714;538;20
27.02.20;14:55:00;1;219;4758;0;2;1059;10995;4;1133;411;22;3;670;7171;4;736;529;22;4;938;10574;5;977;245;21;5;2095;25473;4;1114;904;433;709;28;6;1575;19222;4;819;801;602;572;26;7;1207;14898;4;1285;486;23;8;969;15103;0;1026;392;17;9;653;8239;4;715;536;20
27.02.20;14:50:00;1;256;4739;0;2;1226;10907;4;1307;413;22;3;773;7115;4;846;530;22;4;1090;10496;5;1135;246;22;5;2407;25296;4;1268;1041;432;700;29;6;1805;19089;4;934;913;606;580;26;7;1402;14798;4;1481;493;23;8;1396;15030;4;1478;490;23;9;757;8184;4;824;543;21
27.02.20;14:45:00;1;256;4718;0;2;1401;10805;4;1487;415;23;3;889;7051;4;963;532;22;4;1248;10405;5;1300;244;22;5;2687;25093;4;1442;1163;433;692;29;6;2006;18938;4;1046;1021;606;580;26;7;1620;14681;4;1701;491;23;8;1610;14914;4;1687;490;23;9;332;8121;4;360;213;8
27.02.20;14:40:00;1;296;4696;0;2;1520;10688;4;1613;416;23;3;968;6977;4;1047;532;23;4;1360;10301;5;1417;245;22;5;2896;24867;4;1549;1260;434;698;29;6;2170;18768;4;1129;1104;603;578;26;7;1809;14547;4;1913;498;23;8;1809;14780;4;1903;492;23;9;825;8036;0;890;455;17
27.02.20;14:35:00;1;213;4676;0;2;1404;10561;4;1490;414;23;3;894;6896;4;967;529;23;4;1251;10187;5;1303;244;22;5;2692;24627;4;1434;1171;428;706;29;6;2043;18588;4;1055;1032;612;577;26;7;1668;14395;4;1761;489;23;8;1668;14628;4;1760;487;23;9;912;7971;4;984;538;21
27.02.20;14:30:00;1;262;4658;0;2;1409;10444;4;1498;417;23;3;900;6821;4;975;527;23;4;1261;10083;5;1314;247;22;5;2745;24403;4;1469;1192;433;706;29;6;2062;18419;4;1053;1025;606;579;26;7;1649;14256;4;1734;492;24;8;1361;14489;4;1435;406;19;9;893;7895;4;963;536;21
27.02.20;14:25:00;1;237;4637;0;2;1458;10327;4;1546;411;23;3;932;6746;4;1004;525;23;4;1301;9978;5;1355;247;22;5;2829;24174;4;1516;1229;431;702;29;6;2120;18246;4;1083;1056;604;576;26;7;1743;14118;4;1782;486;24;8;1696;14354;4;1782;484;23;9;923;7822;4;995;538;22
27.02.20;14:20:00;1;213;4618;0;2;1427;10206;4;1513;413;24;3;915;6669;4;989;523;23;4;1273;9870;5;1326;248;23;5;2729;23938;4;1460;1183;430;700;29;6;2065;18069;4;1066;1050;600;583;26;7;1693;13974;4;1790;491;24;8;1693;14214;4;1783;495;24;9;924;7744;4;998;539;22